M I D A S
Marine Information and Data Acquisition System
Tripno 1510 of the Zeeleeuw from 2008-06-25 06:06:34 to 2008-06-25 12:09:04
Back to CruiseResearch ActivitiesStationsMapUnderway DataData graphs

EquipmentUnitsComments
TimeDGPSUTC
LatitudeDGPSDM.mWGS84
LongitudeDGPSDM.mWGS84
SpeedMeteo Stationm/sRelative wind speed
DirectionMeteo StationdegRelative wind direction
TemperatureMeteo Stationdeg CelciusAir temperature
PressureMeteo StationPaAtmospheric pressure
HumidityMeteo Station%Relative humidity
Missing or incorrect values are displayed as -999
Metereological data collected by the RV Zeeleeuw from 2008-06-25 06:06:44 to 2008-06-25 12:12:41
Time Latitude Longitude Speed Direction Temperature Pressure Humidity
2008-06-25 06:07 51°13.648 2°55.973 -999 -999 -999 -999 -999
2008-06-25 06:08 51°13.688 2°55.859 -999 -999 -999 -999 -999
2008-06-25 06:09 51°13.742 2°55.744 -999 -999 -999 -999 -999
2008-06-25 06:10 51°13.811 2°55.651 -999 -999 -999 -999 -999
2008-06-25 06:11 51°13.893 2°55.631 -999 -999 -999 -999 -999
2008-06-25 06:12 51°13.939 2°55.662 -999 -999 -999 -999 -999
2008-06-25 06:13 51°13.98 2°55.567 -999 -999 -999 -999 -999
2008-06-25 06:14 51°14.104 2°55.439 -999 -999 -999 -999 -999
2008-06-25 06:15 51°14.241 2°55.276 -999 -999 -999 -999 -999
2008-06-25 06:16 51°14.367 2°55.049 -999 -999 -999 -999 -999
2008-06-25 06:17 51°14.491 2°54.793 -999 -999 -999 -999 -999
2008-06-25 06:18 51°14.571 2°54.505 -999 -999 -999 -999 -999
2008-06-25 06:19 51°14.653 2°54.218 -999 -999 -999 -999 -999
2008-06-25 06:20 51°14.716 2°53.923 -999 -999 -999 -999 -999
2008-06-25 06:21 51°14.712 2°53.615 -999 -999 -999 -999 -999
2008-06-25 06:22 51°14.723 2°53.303 -999 -999 -999 -999 -999
2008-06-25 06:23 51°14.748 2°52.992 -999 -999 -999 -999 -999
2008-06-25 06:24 51°14.774 2°52.679 -999 -999 -999 -999 -999
2008-06-25 06:25 51°14.789 2°52.366 -999 -999 -999 -999 -999
2008-06-25 06:26 51°14.802 2°52.05 -999 -999 -999 -999 -999
2008-06-25 06:27 51°14.819 2°51.732 -999 -999 -999 -999 -999
2008-06-25 06:28 51°14.849 2°51.417 -999 -999 -999 -999 -999
2008-06-25 06:29 51°14.878 2°51.102 -999 -999 -999 -999 -999
2008-06-25 06:30 51°14.904 2°50.787 -999 -999 -999 -999 -999
2008-06-25 06:31 51°14.93 2°50.474 -999 -999 -999 -999 -999
2008-06-25 06:32 51°14.947 2°50.16 -999 -999 -999 -999 -999
2008-06-25 06:33 51°14.966 2°49.844 -999 -999 -999 -999 -999
2008-06-25 06:34 51°14.991 2°49.529 -999 -999 -999 -999 -999
2008-06-25 06:35 51°15.007 2°49.217 -999 -999 -999 -999 -999
2008-06-25 06:36 51°15.025 2°48.902 -999 -999 -999 -999 -999
2008-06-25 06:37 51°15.043 2°48.588 -999 -999 -999 -999 -999
2008-06-25 06:38 51°15.071 2°48.272 -999 -999 -999 -999 -999
2008-06-25 06:39 51°15.085 2°47.955 -999 -999 -999 -999 -999
2008-06-25 06:40 51°15.111 2°47.641 -999 -999 -999 -999 -999
2008-06-25 06:41 51°15.139 2°47.329 -999 -999 -999 -999 -999
2008-06-25 06:42 51°15.16 2°47.014 -999 -999 -999 -999 -999
2008-06-25 06:43 51°15.173 2°46.696 -999 -999 -999 -999 -999
2008-06-25 06:44 51°15.188 2°46.378 -999 -999 -999 -999 -999
2008-06-25 06:45 51°15.211 2°46.059 -999 -999 -999 -999 -999
2008-06-25 06:46 51°15.237 2°45.743 -999 -999 -999 -999 -999
2008-06-25 06:47 51°15.259 2°45.427 -999 -999 -999 -999 -999
2008-06-25 06:48 51°15.283 2°45.112 -999 -999 -999 -999 -999
2008-06-25 06:49 51°15.3 2°44.797 -999 -999 -999 -999 -999
2008-06-25 06:50 51°15.326 2°44.482 -999 -999 -999 -999 -999
2008-06-25 06:51 51°15.348 2°44.169 -999 -999 -999 -999 -999
2008-06-25 06:52 51°15.375 2°43.857 -999 -999 -999 -999 -999
2008-06-25 06:53 51°15.396 2°43.546 -999 -999 -999 -999 -999
2008-06-25 06:54 51°15.42 2°43.233 -999 -999 -999 -999 -999
2008-06-25 06:55 51°15.442 2°42.916 -999 -999 -999 -999 -999
2008-06-25 06:56 51°15.463 2°42.598 -999 -999 -999 -999 -999
2008-06-25 06:57 51°15.483 2°42.282 -999 -999 -999 -999 -999
2008-06-25 06:58 51°15.509 2°41.968 -999 -999 -999 -999 -999
2008-06-25 06:59 51°15.546 2°41.657 -999 -999 -999 -999 -999
2008-06-25 07:00 51°15.657 2°41.381 -999 -999 -999 -999 -999
2008-06-25 07:01 51°15.769 2°41.102 -999 -999 -999 -999 -999
2008-06-25 07:02 51°15.875 2°40.818 -999 -999 -999 -999 -999
2008-06-25 07:03 51°15.977 2°40.533 -999 -999 -999 -999 -999
2008-06-25 07:04 51°16.071 2°40.244 -999 -999 -999 -999 -999
2008-06-25 07:05 51°16.169 2°39.958 -999 -999 -999 -999 -999
2008-06-25 07:06 51°16.259 2°39.665 -999 -999 -999 -999 -999
2008-06-25 07:07 51°16.353 2°39.376 -999 -999 -999 -999 -999
2008-06-25 07:08 51°16.452 2°39.092 -999 -999 -999 -999 -999
2008-06-25 07:09 51°16.558 2°38.813 -999 -999 -999 -999 -999
2008-06-25 07:10 51°16.656 2°38.526 -999 -999 -999 -999 -999
2008-06-25 07:11 51°16.762 2°38.244 -999 -999 -999 -999 -999
2008-06-25 07:12 51°16.868 2°37.959 -999 -999 -999 -999 -999
2008-06-25 07:13 51°16.975 2°37.68 -999 -999 -999 -999 -999
2008-06-25 07:14 51°17.08 2°37.402 -999 -999 -999 -999 -999
2008-06-25 07:15 51°17.187 2°37.124 -999 -999 -999 -999 -999
2008-06-25 07:16 51°17.288 2°36.842 -999 -999 -999 -999 -999
2008-06-25 07:17 51°17.389 2°36.557 -999 -999 -999 -999 -999
2008-06-25 07:18 51°17.479 2°36.264 -999 -999 -999 -999 -999
2008-06-25 07:19 51°17.569 2°35.972 -999 -999 -999 -999 -999
2008-06-25 07:20 51°17.663 2°35.684 -999 -999 -999 -999 -999
2008-06-25 07:21 51°17.754 2°35.393 -999 -999 -999 -999 -999
2008-06-25 07:22 51°17.847 2°35.106 -999 -999 -999 -999 -999
2008-06-25 07:23 51°17.931 2°34.827 -999 -999 -999 -999 -999
2008-06-25 07:24 51°17.967 2°34.546 -999 -999 -999 -999 -999
2008-06-25 07:25 51°17.979 2°34.344 -999 -999 -999 -999 -999
2008-06-25 07:26 51°17.984 2°34.22 -999 -999 -999 -999 -999
2008-06-25 07:27 51°17.967 2°34.168 -999 -999 -999 -999 -999
2008-06-25 07:28 51°17.952 2°34.138 -999 -999 -999 -999 -999
2008-06-25 07:29 51°17.944 2°34.103 -999 -999 -999 -999 -999
2008-06-25 07:30 51°17.947 2°34.044 -999 -999 -999 -999 -999
2008-06-25 07:31 51°18.03 2°34.048 -999 -999 -999 -999 -999
2008-06-25 07:32 51°18.095 2°34.268 -999 -999 -999 -999 -999
2008-06-25 07:33 51°18.186 2°34.564 -999 -999 -999 -999 -999
2008-06-25 07:34 51°18.276 2°34.854 -999 -999 -999 -999 -999
2008-06-25 07:35 51°18.33 2°35.179 -999 -999 -999 -999 -999
2008-06-25 07:36 51°18.377 2°35.506 -999 -999 -999 -999 -999
2008-06-25 07:37 51°18.41 2°35.835 -999 -999 -999 -999 -999
2008-06-25 07:38 51°18.434 2°36.163 -999 -999 -999 -999 -999
2008-06-25 07:39 51°18.468 2°36.488 -999 -999 -999 -999 -999
2008-06-25 07:40 51°18.501 2°36.811 -999 -999 -999 -999 -999
2008-06-25 07:41 51°18.537 2°37.136 -999 -999 -999 -999 -999
2008-06-25 07:42 51°18.567 2°37.461 -999 -999 -999 -999 -999
2008-06-25 07:43 51°18.586 2°37.789 -999 -999 -999 -999 -999
2008-06-25 07:44 51°18.61 2°38.117 -999 -999 -999 -999 -999
2008-06-25 07:45 51°18.64 2°38.444 -999 -999 -999 -999 -999
2008-06-25 07:46 51°18.66 2°38.773 -999 -999 -999 -999 -999
2008-06-25 07:47 51°18.685 2°39.092 -999 -999 -999 -999 -999
2008-06-25 07:48 51°18.685 2°39.242 -999 -999 -999 -999 -999
2008-06-25 07:49 51°18.681 2°39.33 -999 -999 -999 -999 -999
2008-06-25 07:50 51°18.704 2°39.395 -999 -999 -999 -999 -999
2008-06-25 07:51 51°18.739 2°39.431 -999 -999 -999 -999 -999
2008-06-25 07:52 51°18.775 2°39.441 -999 -999 -999 -999 -999
2008-06-25 07:53 51°18.806 2°39.433 -999 -999 -999 -999 -999
2008-06-25 07:54 51°18.83 2°39.414 -999 -999 -999 -999 -999
2008-06-25 07:55 51°18.846 2°39.39 -999 -999 -999 -999 -999
2008-06-25 07:56 51°18.852 2°39.367 -999 -999 -999 -999 -999
2008-06-25 07:57 51°18.854 2°39.362 -999 -999 -999 -999 -999
2008-06-25 07:58 51°18.849 2°39.357 -999 -999 -999 -999 -999
2008-06-25 07:59 51°18.848 2°39.314 -999 -999 -999 -999 -999
2008-06-25 08:00 51°18.86 2°39.312 -999 -999 -999 -999 -999
2008-06-25 08:01 51°18.875 2°39.319 -999 -999 -999 -999 -999
2008-06-25 08:02 51°18.889 2°39.331 -999 -999 -999 -999 -999
2008-06-25 08:03 51°18.902 2°39.345 -999 -999 -999 -999 -999
2008-06-25 08:04 51°18.912 2°39.362 -999 -999 -999 -999 -999
2008-06-25 08:05 51°18.92 2°39.38 -999 -999 -999 -999 -999
2008-06-25 08:06 51°18.935 2°39.394 -999 -999 -999 -999 -999
2008-06-25 08:07 51°18.966 2°39.351 -999 -999 -999 -999 -999
2008-06-25 08:08 51°18.956 2°39.294 -999 -999 -999 -999 -999
2008-06-25 08:09 51°18.929 2°39.28 -999 -999 -999 -999 -999
2008-06-25 08:10 51°18.912 2°39.286 -999 -999 -999 -999 -999
2008-06-25 08:11 51°18.903 2°39.297 -999 -999 -999 -999 -999
2008-06-25 08:12 51°18.9 2°39.31 -999 -999 -999 -999 -999
2008-06-25 08:13 51°18.9 2°39.326 -999 -999 -999 -999 -999
2008-06-25 08:14 51°18.902 2°39.344 -999 -999 -999 -999 -999
2008-06-25 08:15 51°18.906 2°39.363 -999 -999 -999 -999 -999
2008-06-25 08:16 51°18.911 2°39.384 -999 -999 -999 -999 -999
2008-06-25 08:17 51°18.917 2°39.405 -999 -999 -999 -999 -999
2008-06-25 08:18 51°18.923 2°39.426 -999 -999 -999 -999 -999
2008-06-25 08:19 51°18.929 2°39.447 -999 -999 -999 -999 -999
2008-06-25 08:20 51°18.934 2°39.467 -999 -999 -999 -999 -999
2008-06-25 08:21 51°18.938 2°39.486 -999 -999 -999 -999 -999
2008-06-25 08:22 51°18.942 2°39.504 -999 -999 -999 -999 -999
2008-06-25 08:23 51°18.947 2°39.522 -999 -999 -999 -999 -999
2008-06-25 08:24 51°18.952 2°39.54 -999 -999 -999 -999 -999
2008-06-25 08:25 51°18.958 2°39.558 -999 -999 -999 -999 -999
2008-06-25 08:26 51°18.965 2°39.576 -999 -999 -999 -999 -999
2008-06-25 08:27 51°18.972 2°39.595 -999 -999 -999 -999 -999
2008-06-25 08:28 51°18.978 2°39.613 -999 -999 -999 -999 -999
2008-06-25 08:29 51°18.985 2°39.633 -999 -999 -999 -999 -999
2008-06-25 08:30 51°18.992 2°39.651 -999 -999 -999 -999 -999
2008-06-25 08:31 51°18.997 2°39.669 -999 -999 -999 -999 -999
2008-06-25 08:32 51°18.998 2°39.689 -999 -999 -999 -999 -999
2008-06-25 08:33 51°18.979 2°39.701 -999 -999 -999 -999 -999
2008-06-25 08:34 51°18.956 2°39.683 -999 -999 -999 -999 -999
2008-06-25 08:35 51°18.934 2°39.638 -999 -999 -999 -999 -999
2008-06-25 08:36 51°18.912 2°39.597 -999 -999 -999 -999 -999
2008-06-25 08:37 51°18.909 2°39.603 -999 -999 -999 -999 -999
2008-06-25 08:38 51°18.912 2°39.619 -999 -999 -999 -999 -999
2008-06-25 08:39 51°18.916 2°39.639 -999 -999 -999 -999 -999
2008-06-25 08:40 51°18.92 2°39.659 -999 -999 -999 -999 -999
2008-06-25 08:41 51°18.924 2°39.678 -999 -999 -999 -999 -999
2008-06-25 08:42 51°18.927 2°39.696 -999 -999 -999 -999 -999
2008-06-25 08:43 51°18.931 2°39.714 -999 -999 -999 -999 -999
2008-06-25 08:44 51°18.935 2°39.733 -999 -999 -999 -999 -999
2008-06-25 08:45 51°18.939 2°39.751 -999 -999 -999 -999 -999
2008-06-25 08:46 51°18.944 2°39.769 -999 -999 -999 -999 -999
2008-06-25 08:47 51°18.949 2°39.786 -999 -999 -999 -999 -999
2008-06-25 08:48 51°18.954 2°39.801 -999 -999 -999 -999 -999
2008-06-25 08:49 51°18.96 2°39.815 -999 -999 -999 -999 -999
2008-06-25 08:50 51°18.967 2°39.83 -999 -999 -999 -999 -999
2008-06-25 08:51 51°18.974 2°39.844 -999 -999 -999 -999 -999
2008-06-25 08:52 51°18.982 2°39.858 -999 -999 -999 -999 -999
2008-06-25 08:53 51°18.99 2°39.873 -999 -999 -999 -999 -999
2008-06-25 08:54 51°18.998 2°39.886 -999 -999 -999 -999 -999
2008-06-25 08:55 51°19.006 2°39.898 -999 -999 -999 -999 -999
2008-06-25 08:56 51°19.014 2°39.911 -999 -999 -999 -999 -999
2008-06-25 08:57 51°19.023 2°39.924 -999 -999 -999 -999 -999
2008-06-25 08:58 51°19.02 2°39.941 -999 -999 -999 -999 -999
2008-06-25 08:59 51°18.98 2°39.887 -999 -999 -999 -999 -999
2008-06-25 09:00 51°19.005 2°39.786 -999 -999 -999 -999 -999
2008-06-25 09:01 51°19.034 2°39.675 -999 -999 -999 -999 -999
2008-06-25 09:02 51°19.023 2°39.611 -999 -999 -999 -999 -999
2008-06-25 09:03 51°19.025 2°39.61 -999 -999 -999 -999 -999
2008-06-25 09:04 51°19.034 2°39.623 -999 -999 -999 -999 -999
2008-06-25 09:05 51°19.042 2°39.635 -999 -999 -999 -999 -999
2008-06-25 09:06 51°19.05 2°39.648 -999 -999 -999 -999 -999
2008-06-25 09:07 51°19.057 2°39.661 -999 -999 -999 -999 -999
2008-06-25 09:08 51°19.065 2°39.672 -999 -999 -999 -999 -999
2008-06-25 09:09 51°19.073 2°39.684 -999 -999 -999 -999 -999
2008-06-25 09:10 51°19.081 2°39.694 -999 -999 -999 -999 -999
2008-06-25 09:11 51°19.09 2°39.705 -999 -999 -999 -999 -999
2008-06-25 09:12 51°19.1 2°39.717 -999 -999 -999 -999 -999
2008-06-25 09:13 51°19.109 2°39.729 -999 -999 -999 -999 -999
2008-06-25 09:14 51°19.117 2°39.741 -999 -999 -999 -999 -999
2008-06-25 09:15 51°19.104 2°39.761 -999 -999 -999 -999 -999
2008-06-25 09:16 51°19.036 2°39.672 -999 -999 -999 -999 -999
2008-06-25 09:17 51°19.041 2°39.43 -999 -999 -999 -999 -999
2008-06-25 09:18 51°19.037 2°39.206 -999 -999 -999 -999 -999
2008-06-25 09:19 51°19.025 2°39.072 -999 -999 -999 -999 -999
2008-06-25 09:20 51°18.995 2°39.008 -999 -999 -999 -999 -999
2008-06-25 09:21 51°18.971 2°38.991 -999 -999 -999 -999 -999
2008-06-25 09:22 51°18.956 2°38.99 -999 -999 -999 -999 -999
2008-06-25 09:23 51°18.947 2°38.997 -999 -999 -999 -999 -999
2008-06-25 09:24 51°18.942 2°39.011 -999 -999 -999 -999 -999
2008-06-25 09:25 51°18.941 2°39.027 -999 -999 -999 -999 -999
2008-06-25 09:26 51°18.942 2°39.042 -999 -999 -999 -999 -999
2008-06-25 09:27 51°18.946 2°39.058 -999 -999 -999 -999 -999
2008-06-25 09:28 51°18.949 2°39.072 -999 -999 -999 -999 -999
2008-06-25 09:29 51°18.954 2°39.086 -999 -999 -999 -999 -999
2008-06-25 09:30 51°18.935 2°39.128 -999 -999 -999 -999 -999
2008-06-25 09:31 51°18.939 2°39.215 -999 -999 -999 -999 -999
2008-06-25 09:32 51°18.979 2°39.255 -999 -999 -999 -999 -999
2008-06-25 09:33 51°19.018 2°39.265 -999 -999 -999 -999 -999
2008-06-25 09:34 51°19.049 2°39.264 -999 -999 -999 -999 -999
2008-06-25 09:35 51°19.077 2°39.261 -999 -999 -999 -999 -999
2008-06-25 09:36 51°19.097 2°39.258 -999 -999 -999 -999 -999
2008-06-25 09:37 51°19.114 2°39.257 -999 -999 -999 -999 -999
2008-06-25 09:38 51°19.129 2°39.254 -999 -999 -999 -999 -999
2008-06-25 09:39 51°19.146 2°39.247 -999 -999 -999 -999 -999
2008-06-25 09:40 51°19.203 2°39.289 -999 -999 -999 -999 -999
2008-06-25 09:41 51°19.147 2°39.382 -999 -999 -999 -999 -999
2008-06-25 09:42 51°19.01 2°39.372 -999 -999 -999 -999 -999
2008-06-25 09:43 51°18.865 2°39.341 -999 -999 -999 -999 -999
2008-06-25 09:44 51°18.798 2°39.388 -999 -999 -999 -999 -999
2008-06-25 09:45 51°18.827 2°39.465 -999 -999 -999 -999 -999
2008-06-25 09:46 51°18.864 2°39.478 -999 -999 -999 -999 -999
2008-06-25 09:47 51°18.889 2°39.473 -999 -999 -999 -999 -999
2008-06-25 09:48 51°18.907 2°39.463 -999 -999 -999 -999 -999
2008-06-25 09:49 51°18.92 2°39.455 -999 -999 -999 -999 -999
2008-06-25 09:50 51°18.93 2°39.449 -999 -999 -999 -999 -999
2008-06-25 09:51 51°18.939 2°39.447 -999 -999 -999 -999 -999
2008-06-25 09:52 51°18.948 2°39.448 -999 -999 -999 -999 -999
2008-06-25 09:53 51°18.954 2°39.449 -999 -999 -999 -999 -999
2008-06-25 09:54 51°18.96 2°39.452 -999 -999 -999 -999 -999
2008-06-25 09:55 51°18.964 2°39.456 -999 -999 -999 -999 -999
2008-06-25 09:56 51°18.967 2°39.459 -999 -999 -999 -999 -999
2008-06-25 09:57 51°18.97 2°39.462 -999 -999 -999 -999 -999
2008-06-25 09:58 51°18.972 2°39.465 -999 -999 -999 -999 -999
2008-06-25 09:59 51°18.975 2°39.468 -999 -999 -999 -999 -999
2008-06-25 10:00 51°18.978 2°39.47 -999 -999 -999 -999 -999
2008-06-25 10:01 51°18.981 2°39.471 -999 -999 -999 -999 -999
2008-06-25 10:02 51°18.983 2°39.473 -999 -999 -999 -999 -999
2008-06-25 10:03 51°18.986 2°39.475 -999 -999 -999 -999 -999
2008-06-25 10:04 51°19.016 2°39.478 -999 -999 -999 -999 -999
2008-06-25 10:05 51°19.034 2°39.615 -999 -999 -999 -999 -999
2008-06-25 10:06 51°19.016 2°39.9 -999 -999 -999 -999 -999
2008-06-25 10:07 51°18.981 2°40.2 -999 -999 -999 -999 -999
2008-06-25 10:08 51°18.935 2°40.49 -999 -999 -999 -999 -999
2008-06-25 10:09 51°18.88 2°40.773 -999 -999 -999 -999 -999
2008-06-25 10:10 51°18.815 2°41.057 -999 -999 -999 -999 -999
2008-06-25 10:11 51°18.745 2°41.34 -999 -999 -999 -999 -999
2008-06-25 10:12 51°18.682 2°41.632 -999 -999 -999 -999 -999
2008-06-25 10:13 51°18.62 2°41.925 -999 -999 -999 -999 -999
2008-06-25 10:14 51°18.567 2°42.174 -999 -999 -999 -999 -999
2008-06-25 10:15 51°18.544 2°42.398 -999 -999 -999 -999 -999
2008-06-25 10:16 51°18.549 2°42.62 -999 -999 -999 -999 -999
2008-06-25 10:17 51°18.562 2°42.843 -999 -999 -999 -999 -999
2008-06-25 10:18 51°18.549 2°43.029 -999 -999 -999 -999 -999
2008-06-25 10:19 51°18.511 2°43.114 -999 -999 -999 -999 -999
2008-06-25 10:20 51°18.487 2°43.141 -999 -999 -999 -999 -999
2008-06-25 10:21 51°18.476 2°43.146 -999 -999 -999 -999 -999
2008-06-25 10:22 51°18.474 2°43.151 -999 -999 -999 -999 -999
2008-06-25 10:23 51°18.474 2°43.153 -999 -999 -999 -999 -999
2008-06-25 10:24 51°18.473 2°43.158 -999 -999 -999 -999 -999
2008-06-25 10:25 51°18.469 2°43.161 -999 -999 -999 -999 -999
2008-06-25 10:26 51°18.467 2°43.166 -999 -999 -999 -999 -999
2008-06-25 10:27 51°18.451 2°43.212 -999 -999 -999 -999 -999
2008-06-25 10:28 51°18.479 2°43.279 -999 -999 -999 -999 -999
2008-06-25 10:29 51°18.504 2°43.309 -999 -999 -999 -999 -999
2008-06-25 10:30 51°18.505 2°43.311 -999 -999 -999 -999 -999
2008-06-25 10:31 51°18.505 2°43.314 -999 -999 -999 -999 -999
2008-06-25 10:32 51°18.501 2°43.318 -999 -999 -999 -999 -999
2008-06-25 10:33 51°18.5 2°43.317 -999 -999 -999 -999 -999
2008-06-25 10:34 51°18.496 2°43.318 -999 -999 -999 -999 -999
2008-06-25 10:35 51°18.495 2°43.319 -999 -999 -999 -999 -999
2008-06-25 10:36 51°18.495 2°43.319 -999 -999 -999 -999 -999
2008-06-25 10:37 51°18.494 2°43.322 -999 -999 -999 -999 -999
2008-06-25 10:38 51°18.487 2°43.327 -999 -999 -999 -999 -999
2008-06-25 10:39 51°18.477 2°43.328 -999 -999 -999 -999 -999
2008-06-25 10:40 51°18.476 2°43.327 -999 -999 -999 -999 -999
2008-06-25 10:41 51°18.479 2°43.328 -999 -999 -999 -999 -999
2008-06-25 10:42 51°18.483 2°43.324 -999 -999 -999 -999 -999
2008-06-25 10:43 51°18.485 2°43.325 -999 -999 -999 -999 -999
2008-06-25 10:44 51°18.485 2°43.324 -999 -999 -999 -999 -999
2008-06-25 10:45 51°18.487 2°43.324 -999 -999 -999 -999 -999
2008-06-25 10:46 51°18.478 2°43.328 -999 -999 -999 -999 -999
2008-06-25 10:47 51°18.48 2°43.324 -999 -999 -999 -999 -999
2008-06-25 10:48 51°18.483 2°43.32 -999 -999 -999 -999 -999
2008-06-25 10:49 51°18.445 2°43.352 -999 -999 -999 -999 -999
2008-06-25 10:50 51°18.298 2°43.396 -999 -999 -999 -999 -999
2008-06-25 10:51 51°18.101 2°43.419 -999 -999 -999 -999 -999
2008-06-25 10:52 51°17.898 2°43.409 -999 -999 -999 -999 -999
2008-06-25 10:53 51°17.695 2°43.381 -999 -999 -999 -999 -999
2008-06-25 10:54 51°17.54 2°43.161 -999 -999 -999 -999 -999
2008-06-25 10:55 51°17.436 2°42.859 -999 -999 -999 -999 -999
2008-06-25 10:56 51°17.352 2°42.538 -999 -999 -999 -999 -999
2008-06-25 10:57 51°17.277 2°42.214 -999 -999 -999 -999 -999
2008-06-25 10:58 51°17.203 2°41.928 -999 -999 -999 -999 -999
2008-06-25 10:59 51°17.16 2°41.765 -999 -999 -999 -999 -999
2008-06-25 11:00 51°17.125 2°41.64 -999 -999 -999 -999 -999
2008-06-25 11:01 51°17.076 2°41.475 -999 -999 -999 -999 -999
2008-06-25 11:02 51°17.032 2°41.323 -999 -999 -999 -999 -999
2008-06-25 11:03 51°17.008 2°41.245 -999 -999 -999 -999 -999
2008-06-25 11:04 51°17.007 2°41.243 -999 -999 -999 -999 -999
2008-06-25 11:05 51°17.012 2°41.247 -999 -999 -999 -999 -999
2008-06-25 11:06 51°17.016 2°41.243 -999 -999 -999 -999 -999
2008-06-25 11:07 51°17.013 2°41.239 -999 -999 -999 -999 -999
2008-06-25 11:08 51°17.006 2°41.238 -999 -999 -999 -999 -999
2008-06-25 11:09 51°17.001 2°41.235 -999 -999 -999 -999 -999
2008-06-25 11:10 51°16.999 2°41.226 -999 -999 -999 -999 -999
2008-06-25 11:11 51°16.977 2°41.258 -999 -999 -999 -999 -999
2008-06-25 11:12 51°16.957 2°41.318 -999 -999 -999 -999 -999
2008-06-25 11:13 51°16.94 2°41.375 -999 -999 -999 -999 -999
2008-06-25 11:14 51°16.922 2°41.421 -999 -999 -999 -999 -999
2008-06-25 11:15 51°16.887 2°41.497 -999 -999 -999 -999 -999
2008-06-25 11:16 51°16.815 2°41.532 -999 -999 -999 -999 -999
2008-06-25 11:17 51°16.69 2°41.539 -999 -999 -999 -999 -999
2008-06-25 11:18 51°16.537 2°41.553 -999 -999 -999 -999 -999
2008-06-25 11:19 51°16.383 2°41.565 -999 -999 -999 -999 -999
2008-06-25 11:20 51°16.205 2°41.577 -999 -999 -999 -999 -999
2008-06-25 11:21 51°16.003 2°41.593 -999 -999 -999 -999 -999
2008-06-25 11:22 51°15.8 2°41.601 -999 -999 -999 -999 -999
2008-06-25 11:23 51°15.597 2°41.614 -999 -999 -999 -999 -999
2008-06-25 11:24 51°15.417 2°41.736 -999 -999 -999 -999 -999
2008-06-25 11:25 51°15.317 2°41.994 -999 -999 -999 -999 -999
2008-06-25 11:26 51°15.296 2°42.293 -999 -999 -999 -999 -999
2008-06-25 11:27 51°15.287 2°42.596 -999 -999 -999 -999 -999
2008-06-25 11:28 51°15.268 2°42.909 -999 -999 -999 -999 -999
2008-06-25 11:29 51°15.251 2°43.212 -999 -999 -999 -999 -999
2008-06-25 11:30 51°15.236 2°43.515 -999 -999 -999 -999 -999
2008-06-25 11:31 51°15.218 2°43.822 -999 -999 -999 -999 -999
2008-06-25 11:32 51°15.199 2°44.124 -999 -999 -999 -999 -999
2008-06-25 11:33 51°15.18 2°44.421 -999 -999 -999 -999 -999
2008-06-25 11:34 51°15.157 2°44.727 -999 -999 -999 -999 -999
2008-06-25 11:35 51°15.138 2°45.031 -999 -999 -999 -999 -999
2008-06-25 11:36 51°15.114 2°45.332 -999 -999 -999 -999 -999
2008-06-25 11:37 51°15.091 2°45.634 -999 -999 -999 -999 -999
2008-06-25 11:38 51°15.069 2°45.935 -999 -999 -999 -999 -999
2008-06-25 11:39 51°15.051 2°46.234 -999 -999 -999 -999 -999
2008-06-25 11:40 51°15.033 2°46.535 -999 -999 -999 -999 -999
2008-06-25 11:41 51°15.014 2°46.837 -999 -999 -999 -999 -999
2008-06-25 11:42 51°14.989 2°47.141 -999 -999 -999 -999 -999
2008-06-25 11:43 51°14.978 2°47.445 -999 -999 -999 -999 -999
2008-06-25 11:44 51°14.962 2°47.751 -999 -999 -999 -999 -999
2008-06-25 11:45 51°14.946 2°48.049 -999 -999 -999 -999 -999
2008-06-25 11:46 51°14.928 2°48.354 -999 -999 -999 -999 -999
2008-06-25 11:47 51°14.911 2°48.658 -999 -999 -999 -999 -999
2008-06-25 11:48 51°14.893 2°48.959 -999 -999 -999 -999 -999
2008-06-25 11:49 51°14.875 2°49.263 -999 -999 -999 -999 -999
2008-06-25 11:50 51°14.862 2°49.562 -999 -999 -999 -999 -999
2008-06-25 11:51 51°14.856 2°49.858 -999 -999 -999 -999 -999
2008-06-25 11:52 51°14.845 2°50.162 -999 -999 -999 -999 -999
2008-06-25 11:53 51°14.833 2°50.463 -999 -999 -999 -999 -999
2008-06-25 11:54 51°14.822 2°50.767 -999 -999 -999 -999 -999
2008-06-25 11:55 51°14.814 2°51.064 -999 -999 -999 -999 -999
2008-06-25 11:56 51°14.801 2°51.364 -999 -999 -999 -999 -999
2008-06-25 11:57 51°14.787 2°51.663 -999 -999 -999 -999 -999
2008-06-25 11:58 51°14.773 2°51.962 -999 -999 -999 -999 -999
2008-06-25 11:59 51°14.763 2°52.266 -999 -999 -999 -999 -999
2008-06-25 12:00 51°14.745 2°52.573 -999 -999 -999 -999 -999
2008-06-25 12:01 51°14.712 2°52.877 -999 -999 -999 -999 -999
2008-06-25 12:02 51°14.677 2°53.181 -999 -999 -999 -999 -999
2008-06-25 12:03 51°14.642 2°53.485 -999 -999 -999 -999 -999
2008-06-25 12:04 51°14.609 2°53.791 -999 -999 -999 -999 -999
2008-06-25 12:05 51°14.571 2°54.105 -999 -999 -999 -999 -999
2008-06-25 12:06 51°14.524 2°54.412 -999 -999 -999 -999 -999
2008-06-25 12:07 51°14.456 2°54.704 -999 -999 -999 -999 -999
2008-06-25 12:08 51°14.371 2°54.99 -999 -999 -999 -999 -999
2008-06-25 12:09 51°14.259 2°55.253 -999 -999 -999 -999 -999
2008-06-25 12:10 51°14.124 2°55.414 -999 -999 -999 -999 -999
2008-06-25 12:11 51°14.003 2°55.503 -999 -999 -999 -999 -999